Richmond, VA

3:42 PM EDT on July 25, 2017 (GMT -0400)
Richmond International

Weather History for KRIC - January, 2014

Change the Weather History Date:

Monday, January 27, 2014

  Actual Average Record
Temperature  
Mean Temperature 46 °F 38 °F  
Max Temperature 64 °F 48 °F 74 °F (1974)
Min Temperature 27 °F 29 °F -6 °F (1940)
Degree Days  
Heating Degree Days 19 27  
Month to date heating degree days 794 729  
Since 1 July heating degree days 2085 2148  
Cooling Degree Days 0 0  
Month to date cooling degree days 0 0  
Year to date cooling degree days 0 0  
Moisture  
Dew Point 23 °F    
Average Humidity 47    
Maximum Humidity 64    
Minimum Humidity 30    
Precipitation  
Precipitation 0.00 in 0.10 in 1.32 in (1976)
Month to date precipitation 3.04 2.64  
Year to date precipitation 3.04 2.64  
Snow  
Snow 0.00 in 0.20 in 7.70 in (1922)
Month to date snowfall 2.0 3.3  
Since 1 July snowfall 2.0 5.6  
Snow Depth 0.00 in    
Sea Level Pressure  
Sea Level Pressure 29.86 in    
Wind  
Wind Speed 11 mph (West)    
Max Wind Speed 23 mph    
Max Gust Speed 29 mph    
Visibility 10 miles    
Events      
T = Trace of Precipitation, MM = Missing Value Source: NWS Daily Summary

Daily Weather History Graph

Daily Weather History Graph

Search for Another Location

Airport or City:

Trip Planner

Search our weather history database for the weather conditions in past years. The results will help you decide how hot, cold, wet, or windy it might be!

Date:

Astronomy

Jan. 27, 2014 Rise Set
Actual Time 7:16 AM EST 5:27 PM EST
Civil Twilight 6:48 AM EST 5:55 PM EST
Nautical Twilight 6:17 AM EST 6:27 PM EST
Astronomical Twilight 5:46 AM EST 6:58 PM EST
Moon 3:54 AM EST (1/27) 2:12 PM EST (1/27)
Length of Visible Light 11h 06m
Length of Day
10h 11m
Waning Crescent, 15% of the Moon is Illuminated
Jan 27
Waning Crescent
Jan 30
New
Feb 6
First Quarter
Feb 14
Full
Feb 22
Last Quarter

Hourly Weather History & Observations

Time (EST) Temp. Windchill Dew Point Humidity Pressure Visibility Wind Dir Wind Speed Gust Speed Precip Events Conditions
12:54 AM 37.9 °F 30.9 °F 21.9 °F 53% 29.81 in 10.0 mi South 10.4 mph - N/A   Overcast
1:54 AM 39.9 °F 33.4 °F 21.9 °F 49% 29.79 in 10.0 mi South 10.4 mph - N/A   Overcast
2:54 AM 41.0 °F 35.2 °F 24.1 °F 51% 29.79 in 10.0 mi South 9.2 mph - N/A   Overcast
3:54 AM 41.0 °F 34.7 °F 25.0 °F 53% 29.78 in 10.0 mi South 10.4 mph - N/A   Overcast
4:54 AM 39.0 °F 32.3 °F 25.0 °F 57% 29.78 in 10.0 mi South 10.4 mph - N/A   Overcast
5:54 AM 39.0 °F 33.4 °F 26.1 °F 60% 29.78 in 10.0 mi SSW 8.1 mph - N/A   Overcast
6:54 AM 37.9 °F 30.9 °F 26.1 °F 62% 29.77 in 10.0 mi SSW 10.4 mph - N/A   Overcast
7:54 AM 37.9 °F 31.5 °F 27.0 °F 65% 29.78 in 10.0 mi SSW 9.2 mph - N/A   Overcast
8:54 AM 42.1 °F 36.1 °F 28.0 °F 58% 29.78 in 10.0 mi SSW 10.4 mph - N/A   Mostly Cloudy
9:54 AM 46.0 °F 41.4 °F 28.9 °F 51% 29.78 in 10.0 mi SSW 9.2 mph - N/A   Mostly Cloudy
10:54 AM 54.0 °F - 30.9 °F 41% 29.79 in 10.0 mi WSW 10.4 mph 19.6 mph N/A   Scattered Clouds
11:54 AM 57.9 °F - 30.9 °F 36% 29.77 in 10.0 mi WSW 10.4 mph - N/A   Scattered Clouds
12:54 PM 60.1 °F - 32.0 °F 35% 29.75 in 10.0 mi WSW 8.1 mph - N/A   Mostly Cloudy
1:54 PM 62.1 °F - 30.9 °F 31% 29.75 in 10.0 mi West 11.5 mph 20.7 mph N/A   Mostly Cloudy
2:54 PM 63.0 °F - 30.9 °F 30% 29.76 in 10.0 mi WNW 16.1 mph 24.2 mph N/A   Mostly Cloudy
3:47 PM 50.0 °F - 30.2 °F 47% 29.79 in 10.0 mi NNE 16.1 mph 24.2 mph N/A   Overcast
3:54 PM 48.9 °F - 28.9 °F 46% 29.82 in 10.0 mi NNE 17.3 mph 24.2 mph N/A   Overcast
4:01 PM 48.2 °F - 28.4 °F 46% 29.81 in 10.0 mi North 17.3 mph - N/A   Overcast
4:54 PM 44.1 °F 37.1 °F 23.0 °F 43% 29.89 in 10.0 mi NNE 15.0 mph - N/A   Mostly Cloudy
5:54 PM 39.9 °F 30.8 °F 19.0 °F 43% 29.94 in 10.0 mi NNE 18.4 mph 24.2 mph N/A   Mostly Cloudy
6:54 PM 34.0 °F 24.6 °F 12.9 °F 42% 30.01 in 10.0 mi NNE 13.8 mph 19.6 mph N/A   Scattered Clouds
7:54 PM 30.9 °F 21.2 °F 8.1 °F 38% 30.05 in 10.0 mi North 12.7 mph - N/A   Scattered Clouds
8:54 PM 30.0 °F 20.5 °F 7.0 °F 38% 30.09 in 10.0 mi North 11.5 mph - N/A   Scattered Clouds
9:54 PM 28.9 °F 19.8 °F 6.1 °F 38% 30.11 in 10.0 mi North 10.4 mph - N/A   Scattered Clouds
10:54 PM 28.0 °F 19.3 °F 5.0 °F 38% 30.14 in 10.0 mi North 9.2 mph - N/A   Scattered Clouds
11:54 PM 27.0 °F 18.0 °F 3.9 °F 37% 30.17 in 10.0 mi North 9.2 mph 18.4 mph N/A   Partly Cloudy